Regional Weather Roundup
Issued by NWS State College, PA

Home | Current Version | Previous Version | Text Only | Print | Product List | Glossary Off
Versions: 1 2 3 4 5 6 7 8 9 10 11 12 13 14 15 16 17 18 19 20 21 22 23 24 25 26 27 28 29 30 31 32 33 34 35 36 37 38 39 40 41 42 43 44 45 46 47 48 49 50

000
ASUS41 KCTP 250810
RWRCTP

REGIONAL WEATHER ROUNDUP
NATIONAL WEATHER SERVICE STATE COLLEGE PA
400 AM EDT MON MAY 25 2015

Note: "fair" indicates few or no clouds below 12,000 feet with no
significant weather and/or obstructions to visibility.

* = STATION THAT DOES NOT REPORT PRECIPITATION /E.G. RAIN...SNOW...ETC/
    THUNDER OR FOG.

PAZ002>004-007>009-013>016-020>023-029>032-250900-
WESTERN PENNSYLVANIA

CITY           SKY/WX    TMP DP  RH WIND       PRES   REMARKS
ERIE           PTCLDY    66  43  43 S12       30.11F
MEADVILLE      CLEAR     64  42  44 S3        30.15F
FRANKLIN*      CLEAR     59  43  55 CALM      30.19S
NEW CASTLE     FAIR      54  54 100 CALM      30.16F
BEAVER COUNTY  NOT AVBL
BUTLER*        CLEAR     55  46  71 S3        30.19S
PITTSBURGH INT CLEAR     60  50  69 S5        30.17S
PITTSBURGH     CLEAR     62  48  60 S8        30.17F
INDIANA*       PTCLDY    59  52  77 CALM      30.23R
LATROBE        CLEAR     55  52  88 CALM      30.20S
WASHINGTON CO* CLEAR     54  50  87 CALM      30.20R
$$

PAZ004>006-010>012-017>019-024>028-033>037-041-042-045-046-049>053-250900-
CENTRAL PENNSYLVANIA

CITY           SKY/WX    TMP DP  RH WIND       PRES   REMARKS
BRADFORD       PTCLDY    57  46  66 CALM      30.21F
DUBOIS         PTCLDY    63  46  54 CALM      30.19F
CLEARFIELD     PTCLDY    54  49  83 CALM      30.21F
JOHNSTOWN      PTCLDY    61  49  64 SW7       30.23F
ALTOONA        CLEAR     58  48  69 CALM      30.22F
STATE COLLEGE  PTCLDY    60  48  65 CALM      30.21S
WILLIAMSPORT   CLOUDY    59  51  75 CALM      30.21S
SELINSGROVE    MOCLDY    59  54  83 CALM      30.22S
FT INDIANTOWN  MOCLDY    58  55  88 NE1       30.24S FOG
CAPITAL CITY   MOCLDY    61  56  83 CALM      30.23S
HARRISBURG     MOCLDY    65  57  75 CALM      30.22S
YORK           PTCLDY    62  56  80 CALM      30.23S
$$

PAZ038>040-043-044-047-048-054-055-060>062-067>071-250900-
EASTERN PENNSYLVANIA

CITY           SKY/WX    TMP DP  RH WIND       PRES   REMARKS
SCRANTON       CLOUDY    65  46  50 CALM      30.24R
MOUNT POCONO   CLOUDY    61  47  59 W5        30.27S
ALLENTOWN      MOCLDY    59  47  64 CALM      30.25S
QUAKERTOWN*    PTSUNNY   57  54  88 CALM      30.27R
READING        CLOUDY    64  57  78 CALM      30.24R
LANCASTER      MOCLDY    59  56  89 CALM      30.24S
COATESVILLE    PTSUNNY   63  59  88 CALM      30.27S
POTTSTOWN      CLOUDY    63  57  81 S3        30.27R
BLUE BELL      MOCLDY    64  59  82 CALM      30.26R
DOYLESTOWN     MOCLDY    62  56  80 S3        30.26R
WILLOW GROVE   NOT AVBL
NORTH PHILA    MOCLDY    64  53  67 CALM      30.28R
PHILADELPHIA   CLOUDY    65  56  72 S6        30.27S
$$



USA.gov is the U.S. government's official web portal to all federal, state and local government web resources and services.